User: anonymous
Location: Unspecified
(0.0000°N, 0.0000°E)
Time: 18:26:23
(UTC+00:00)
Language:

AUBIESAT-1 - Orbit

View from above orbital plane
View from above orbital plane
View from above satellite
View from above satellite

Ground track
Ground track

The orbit data is extracted from the following two-line orbital elements,

1 37854U 11061E   14109.99169175  .00010739  00000-0  72069-3 0  7645
2 37854 101.7213 113.5771 0216950 222.3986 197.5857 14.89931587134043
Epoch (UTC): 19 April 2014 23:48:02
Eccentricity: 0.0216950
inclination: 101.7213°
perigee height: 447 km
apogee height: 749 km
right ascension of ascending node: 113.5771°
argument of perigee: 222.3986°
revolutions per day: 14.89931587
mean anomaly at epoch: 197.5857°
orbit number at epoch: 13404

The dashed part of the orbit path shows where the satellite is in the earth's shadow,  

DLR